Regional Weather Roundup
Issued by NWS

Home | Current Version | Previous Version | Graphics & Text | Print | Product List | Glossary On
Versions: 1 2 3 4 5 6 7 8 9 10 11 12 13 14 15 16 17 18 19 20 21 22 23 24 25 26 27 28 29 30 31 32 33 34 35 36 37 38 39 40 41 42 43 44 45 46 47 48 49 50
000
ASUS45 KCYS 181710
RWRWY

WYOMING REGIONAL WEATHER ROUNDUP
NATIONAL WEATHER SERVICE CHEYENNE WY
1000 AM MST SAT NOV 18 2017

NOTE:  "FAIR" INDICATES FEW OR NO CLOUDS BELOW 12,000 FEET
WITH NO SIGNIFICANT WEATHER AND/OR OBSTRUCTIONS TO VISIBILITY.

WYZ001-181800-
YELLOWSTONE NATIONAL PARK

CITY           SKY/WX    TMP DP  RH WIND       PRES   REMARKS
LK YELLOWSTONE NOT AVBL
W YELLOWSTONE  NOT AVBL

$$
WYZ002>013-054>058-071-098>099-181800-
NORTHERN WYOMING

CITY           SKY/WX    TMP DP  RH WIND       PRES   REMARKS
JACKSON        FAIR      25  16  68 SW7       30.35S WCI  17
CODY           FAIR      34  10  37 W17G26    30.19F WCI  23
GREYBULL       PTSUNNY   30  22  72 SE5       30.23S WCI  25
WORLAND        FAIR      29  23  78 SW5       30.23S WCI  24
SHERIDAN       PTSUNNY   37  19  48 E6        30.16F WCI  32
BUFFALO        FAIR      29  13  51 S7        30.16F WCI  22
GILLETTE       FAIR      36  13  38 W14       30.17S WCI  27
HULETT         PTSUNNY   34  19  55 W9G16     30.16R WCI  26
NEWCASTLE      FAIR      34  18  51 NW13      30.19R WCI  25

$$
WYZ014>020-022>026-101>103-181800-
CENTRAL WYOMING

CITY           SKY/WX    TMP DP  RH WIND       PRES   REMARKS
BIG PINEY      FAIR      15  10  80 S3        30.33S
PINEDALE       FAIR      23  12  63 NW16      30.31F WCI  10
DUBOIS         FAIR      25   7  46 NW24G37   30.18F WCI   9
LANDER         FAIR      32   7  35 CALM      30.21S
RIVERTON       FAIR      34  10  37 NW12      30.21S WCI  25
CASPER         FAIR      26  17  68 SW17      30.23R WCI  13
DOUGLAS        FAIR      27  21  78 NW6       30.23S WCI  20

$$
WYZ021-027>030-104>119-181800-
SOUTHERN WYOMING

CITY           SKY/WX    TMP DP  RH WIND       PRES   REMARKS
EVANSTON       FAIR      17  14  88 SW9       30.38S WCI   6
ROCK SPRINGS   FAIR      21  15  78 SW14      30.35R WCI   8
DIXON          FAIR      15  12  88 NE3       30.43F
RAWLINS        LGT SNOW  22  15  75 W20G38    30.27F WCI   7
SARATOGA         N/A     23  14  68 SW14      30.33F WCI  11
LARAMIE        FAIR      24  10  55 W24G35    30.20S WCI   8
CHEYENNE       FAIR      29  13  51 W9        30.21R WCI  20
TORRINGTON     FAIR      37  18  46 W16       30.23S WCI  28
PINE BLUFFS    FAIR      32  18  55 MISG      30.24R

$$



USA.gov is the U.S. government's official web portal to all federal, state and local government web resources and services.